M I D A S
Marine Information and Data Acquisition System
Tripno 1641 of the Zeeleeuw from 2009-02-06 08:09:41 to 2009-02-06 17:33:33
Back to CruiseResearch ActivitiesStationsMapUnderway DataData graphs

EquipmentUnitsComments
TimeDGPSUTC
LatitudeDGPSDM.mWGS84
LongitudeDGPSDM.mWGS84
SpeedMeteo Stationm/sRelative wind speed
DirectionMeteo StationdegRelative wind direction
TemperatureMeteo Stationdeg CelciusAir temperature
PressureMeteo StationPaAtmospheric pressure
HumidityMeteo Station%Relative humidity
Missing or incorrect values are displayed as -999
Metereological data collected by the RV Zeeleeuw from 2009-02-06 08:03:12 to 2009-02-06 17:39:24
Time Latitude Longitude Speed Direction Temperature Pressure Humidity
2009-02-06 08:04 51°13.681 2°55.901 -999 -999 -999 -999 -999
2009-02-06 08:05 51°13.699 2°55.809 -999 -999 -999 -999 -999
2009-02-06 08:06 51°13.702 2°55.737 -999 -999 -999 -999 -999
2009-02-06 08:07 51°13.717 2°55.749 -999 -999 -999 -999 -999
2009-02-06 08:08 51°13.731 2°55.732 -999 -999 -999 -999 -999
2009-02-06 08:09 51°13.818 2°55.645 -999 -999 -999 -999 -999
2009-02-06 08:10 51°13.95 2°55.545 -999 -999 -999 -999 -999
2009-02-06 08:11 51°14.094 2°55.44 -999 -999 -999 -999 -999
2009-02-06 08:12 51°14.229 2°55.305 -999 -999 -999 -999 -999
2009-02-06 08:13 51°14.34 2°55.115 -999 -999 -999 -999 -999
2009-02-06 08:14 51°14.451 2°54.895 -999 -999 -999 -999 -999
2009-02-06 08:15 51°14.55 2°54.654 -999 -999 -999 -999 -999
2009-02-06 08:16 51°14.648 2°54.393 -999 -999 -999 -999 -999
2009-02-06 08:17 51°14.747 2°54.125 -999 -999 -999 -999 -999
2009-02-06 08:18 51°14.839 2°53.852 -999 -999 -999 -999 -999
2009-02-06 08:19 51°14.942 2°53.585 -999 -999 -999 -999 -999
2009-02-06 08:20 51°15.042 2°53.316 -999 -999 -999 -999 -999
2009-02-06 08:21 51°15.138 2°53.045 -999 -999 -999 -999 -999
2009-02-06 08:22 51°15.234 2°52.772 -999 -999 -999 -999 -999
2009-02-06 08:23 51°15.327 2°52.496 -999 -999 -999 -999 -999
2009-02-06 08:24 51°15.428 2°52.225 -999 -999 -999 -999 -999
2009-02-06 08:25 51°15.525 2°51.951 -999 -999 -999 -999 -999
2009-02-06 08:26 51°15.623 2°51.678 -999 -999 -999 -999 -999
2009-02-06 08:27 51°15.716 2°51.4 -999 -999 -999 -999 -999
2009-02-06 08:28 51°15.805 2°51.12 -999 -999 -999 -999 -999
2009-02-06 08:29 51°15.885 2°50.833 -999 -999 -999 -999 -999
2009-02-06 08:30 51°15.958 2°50.546 -999 -999 -999 -999 -999
2009-02-06 08:31 51°16.027 2°50.262 -999 -999 -999 -999 -999
2009-02-06 08:32 51°16.063 2°49.964 -999 -999 -999 -999 -999
2009-02-06 08:33 51°16.072 2°49.66 -999 -999 -999 -999 -999
2009-02-06 08:34 51°16.09 2°49.356 -999 -999 -999 -999 -999
2009-02-06 08:35 51°16.12 2°49.051 -999 -999 -999 -999 -999
2009-02-06 08:36 51°16.148 2°48.745 -999 -999 -999 -999 -999
2009-02-06 08:37 51°16.172 2°48.439 -999 -999 -999 -999 -999
2009-02-06 08:38 51°16.192 2°48.133 -999 -999 -999 -999 -999
2009-02-06 08:39 51°16.21 2°47.829 -999 -999 -999 -999 -999
2009-02-06 08:40 51°16.228 2°47.526 -999 -999 -999 -999 -999
2009-02-06 08:41 51°16.247 2°47.227 -999 -999 -999 -999 -999
2009-02-06 08:42 51°16.259 2°46.927 -999 -999 -999 -999 -999
2009-02-06 08:43 51°16.266 2°46.626 -999 -999 -999 -999 -999
2009-02-06 08:44 51°16.278 2°46.326 -999 -999 -999 -999 -999
2009-02-06 08:45 51°16.299 2°46.03 -999 -999 -999 -999 -999
2009-02-06 08:46 51°16.333 2°45.731 -999 -999 -999 -999 -999
2009-02-06 08:47 51°16.369 2°45.432 -999 -999 -999 -999 -999
2009-02-06 08:48 51°16.408 2°45.132 -999 -999 -999 -999 -999
2009-02-06 08:49 51°16.447 2°44.83 -999 -999 -999 -999 -999
2009-02-06 08:50 51°16.487 2°44.537 -999 -999 -999 -999 -999
2009-02-06 08:51 51°16.542 2°44.242 -999 -999 -999 -999 -999
2009-02-06 08:52 51°16.621 2°43.956 -999 -999 -999 -999 -999
2009-02-06 08:53 51°16.709 2°43.673 -999 -999 -999 -999 -999
2009-02-06 08:54 51°16.785 2°43.388 -999 -999 -999 -999 -999
2009-02-06 08:55 51°16.861 2°43.105 -999 -999 -999 -999 -999
2009-02-06 08:56 51°16.942 2°42.828 -999 -999 -999 -999 -999
2009-02-06 08:57 51°17.027 2°42.556 -999 -999 -999 -999 -999
2009-02-06 08:58 51°17.11 2°42.28 -999 -999 -999 -999 -999
2009-02-06 08:59 51°17.198 2°41.999 -999 -999 -999 -999 -999
2009-02-06 09:00 51°17.282 2°41.713 -999 -999 -999 -999 -999
2009-02-06 09:01 51°17.334 2°41.417 -999 -999 -999 -999 -999
2009-02-06 09:02 51°17.364 2°41.113 -999 -999 -999 -999 -999
2009-02-06 09:03 51°17.398 2°40.808 -999 -999 -999 -999 -999
2009-02-06 09:04 51°17.431 2°40.505 -999 -999 -999 -999 -999
2009-02-06 09:05 51°17.458 2°40.205 -999 -999 -999 -999 -999
2009-02-06 09:06 51°17.496 2°39.91 -999 -999 -999 -999 -999
2009-02-06 09:07 51°17.53 2°39.616 -999 -999 -999 -999 -999
2009-02-06 09:08 51°17.566 2°39.324 -999 -999 -999 -999 -999
2009-02-06 09:09 51°17.601 2°39.031 -999 -999 -999 -999 -999
2009-02-06 09:10 51°17.635 2°38.735 -999 -999 -999 -999 -999
2009-02-06 09:11 51°17.671 2°38.438 -999 -999 -999 -999 -999
2009-02-06 09:12 51°17.709 2°38.141 -999 -999 -999 -999 -999
2009-02-06 09:13 51°17.756 2°37.845 -999 -999 -999 -999 -999
2009-02-06 09:14 51°17.803 2°37.551 -999 -999 -999 -999 -999
2009-02-06 09:15 51°17.852 2°37.253 -999 -999 -999 -999 -999
2009-02-06 09:16 51°17.9 2°36.952 -999 -999 -999 -999 -999
2009-02-06 09:17 51°17.941 2°36.651 -999 -999 -999 -999 -999
2009-02-06 09:18 51°17.99 2°36.353 -999 -999 -999 -999 -999
2009-02-06 09:19 51°18.033 2°36.058 -999 -999 -999 -999 -999
2009-02-06 09:20 51°18.075 2°35.761 -999 -999 -999 -999 -999
2009-02-06 09:21 51°18.139 2°35.472 -999 -999 -999 -999 -999
2009-02-06 09:22 51°18.247 2°35.209 -999 -999 -999 -999 -999
2009-02-06 09:23 51°18.361 2°34.953 -999 -999 -999 -999 -999
2009-02-06 09:24 51°18.468 2°34.689 -999 -999 -999 -999 -999
2009-02-06 09:25 51°18.577 2°34.425 -999 -999 -999 -999 -999
2009-02-06 09:26 51°18.677 2°34.155 -999 -999 -999 -999 -999
2009-02-06 09:27 51°18.733 2°33.863 -999 -999 -999 -999 -999
2009-02-06 09:28 51°18.762 2°33.564 -999 -999 -999 -999 -999
2009-02-06 09:29 51°18.793 2°33.262 -999 -999 -999 -999 -999
2009-02-06 09:30 51°18.823 2°32.96 -999 -999 -999 -999 -999
2009-02-06 09:31 51°18.86 2°32.659 -999 -999 -999 -999 -999
2009-02-06 09:32 51°18.879 2°32.355 -999 -999 -999 -999 -999
2009-02-06 09:33 51°18.897 2°32.052 -999 -999 -999 -999 -999
2009-02-06 09:34 51°18.918 2°31.75 -999 -999 -999 -999 -999
2009-02-06 09:35 51°18.939 2°31.447 -999 -999 -999 -999 -999
2009-02-06 09:36 51°18.96 2°31.14 -999 -999 -999 -999 -999
2009-02-06 09:37 51°18.976 2°30.834 -999 -999 -999 -999 -999
2009-02-06 09:38 51°18.993 2°30.528 -999 -999 -999 -999 -999
2009-02-06 09:39 51°19.009 2°30.224 -999 -999 -999 -999 -999
2009-02-06 09:40 51°19.027 2°29.924 -999 -999 -999 -999 -999
2009-02-06 09:41 51°19.043 2°29.632 -999 -999 -999 -999 -999
2009-02-06 09:42 51°19.061 2°29.343 -999 -999 -999 -999 -999
2009-02-06 09:43 51°19.067 2°29.057 -999 -999 -999 -999 -999
2009-02-06 09:44 51°19.017 2°28.781 -999 -999 -999 -999 -999
2009-02-06 09:45 51°18.925 2°28.531 -999 -999 -999 -999 -999
2009-02-06 09:46 51°18.817 2°28.299 -999 -999 -999 -999 -999
2009-02-06 09:47 51°18.699 2°28.077 -999 -999 -999 -999 -999
2009-02-06 09:48 51°18.582 2°27.856 -999 -999 -999 -999 -999
2009-02-06 09:49 51°18.471 2°27.628 -999 -999 -999 -999 -999
2009-02-06 09:50 51°18.353 2°27.411 -999 -999 -999 -999 -999
2009-02-06 09:51 51°18.232 2°27.199 -999 -999 -999 -999 -999
2009-02-06 09:52 51°18.111 2°26.991 -999 -999 -999 -999 -999
2009-02-06 09:53 51°18.006 2°26.762 -999 -999 -999 -999 -999
2009-02-06 09:54 51°17.894 2°26.54 -999 -999 -999 -999 -999
2009-02-06 09:55 51°17.783 2°26.318 -999 -999 -999 -999 -999
2009-02-06 09:56 51°17.683 2°26.117 -999 -999 -999 -999 -999
2009-02-06 09:57 51°17.583 2°25.929 -999 -999 -999 -999 -999
2009-02-06 09:58 51°17.49 2°25.731 -999 -999 -999 -999 -999
2009-02-06 09:59 51°17.391 2°25.543 -999 -999 -999 -999 -999
2009-02-06 10:00 51°17.304 2°25.383 -999 -999 -999 -999 -999
2009-02-06 10:01 51°17.249 2°25.284 -999 -999 -999 -999 -999
2009-02-06 10:02 51°17.223 2°25.228 -999 -999 -999 -999 -999
2009-02-06 10:03 51°17.201 2°25.191 -999 -999 -999 -999 -999
2009-02-06 10:04 51°17.178 2°25.139 -999 -999 -999 -999 -999
2009-02-06 10:05 51°17.163 2°25.123 -999 -999 -999 -999 -999
2009-02-06 10:06 51°17.163 2°25.113 -999 -999 -999 -999 -999
2009-02-06 10:07 51°17.168 2°25.108 -999 -999 -999 -999 -999
2009-02-06 10:08 51°17.174 2°25.107 -999 -999 -999 -999 -999
2009-02-06 10:09 51°17.18 2°25.113 -999 -999 -999 -999 -999
2009-02-06 10:10 51°17.18 2°25.129 -999 -999 -999 -999 -999
2009-02-06 10:11 51°17.176 2°25.135 -999 -999 -999 -999 -999
2009-02-06 10:12 51°17.176 2°25.123 -999 -999 -999 -999 -999
2009-02-06 10:13 51°17.169 2°25.121 -999 -999 -999 -999 -999
2009-02-06 10:14 51°17.166 2°25.113 -999 -999 -999 -999 -999
2009-02-06 10:15 51°17.17 2°25.114 -999 -999 -999 -999 -999
2009-02-06 10:16 51°17.171 2°25.122 -999 -999 -999 -999 -999
2009-02-06 10:17 51°17.161 2°25.119 -999 -999 -999 -999 -999
2009-02-06 10:18 51°17.154 2°25.11 -999 -999 -999 -999 -999
2009-02-06 10:19 51°17.159 2°25.111 -999 -999 -999 -999 -999
2009-02-06 10:20 51°17.171 2°25.12 -999 -999 -999 -999 -999
2009-02-06 10:21 51°17.187 2°25.132 -999 -999 -999 -999 -999
2009-02-06 10:22 51°17.201 2°25.143 -999 -999 -999 -999 -999
2009-02-06 10:23 51°17.192 2°25.149 -999 -999 -999 -999 -999
2009-02-06 10:24 51°17.161 2°25.122 -999 -999 -999 -999 -999
2009-02-06 10:25 51°17.143 2°25.093 -999 -999 -999 -999 -999
2009-02-06 10:26 51°17.14 2°25.084 -999 -999 -999 -999 -999
2009-02-06 10:27 51°17.147 2°25.084 -999 -999 -999 -999 -999
2009-02-06 10:28 51°17.165 2°25.098 -999 -999 -999 -999 -999
2009-02-06 10:29 51°17.191 2°25.119 -999 -999 -999 -999 -999
2009-02-06 10:30 51°17.193 2°25.116 -999 -999 -999 -999 -999
2009-02-06 10:31 51°17.185 2°25.117 -999 -999 -999 -999 -999
2009-02-06 10:32 51°17.174 2°25.118 -999 -999 -999 -999 -999
2009-02-06 10:33 51°17.162 2°25.109 -999 -999 -999 -999 -999
2009-02-06 10:34 51°17.16 2°25.109 -999 -999 -999 -999 -999
2009-02-06 10:35 51°17.165 2°25.109 -999 -999 -999 -999 -999
2009-02-06 10:36 51°17.173 2°25.115 -999 -999 -999 -999 -999
2009-02-06 10:37 51°17.165 2°25.123 -999 -999 -999 -999 -999
2009-02-06 10:38 51°17.142 2°25.113 -999 -999 -999 -999 -999
2009-02-06 10:39 51°17.131 2°25.084 -999 -999 -999 -999 -999
2009-02-06 10:40 51°17.118 2°25.085 -999 -999 -999 -999 -999
2009-02-06 10:41 51°17.102 2°25.105 -999 -999 -999 -999 -999
2009-02-06 10:42 51°17.104 2°25.11 -999 -999 -999 -999 -999
2009-02-06 10:43 51°17.126 2°25.064 -999 -999 -999 -999 -999
2009-02-06 10:44 51°17.183 2°25.059 -999 -999 -999 -999 -999
2009-02-06 10:45 51°17.191 2°25.07 -999 -999 -999 -999 -999
2009-02-06 10:46 51°17.216 2°25.092 -999 -999 -999 -999 -999
2009-02-06 10:47 51°17.212 2°25.087 -999 -999 -999 -999 -999
2009-02-06 10:48 51°17.183 2°25.093 -999 -999 -999 -999 -999
2009-02-06 10:49 51°17.167 2°25.119 -999 -999 -999 -999 -999
2009-02-06 10:50 51°17.162 2°25.15 -999 -999 -999 -999 -999
2009-02-06 10:51 51°17.166 2°25.18 -999 -999 -999 -999 -999
2009-02-06 10:52 51°17.178 2°25.211 -999 -999 -999 -999 -999
2009-02-06 10:53 51°17.195 2°25.24 -999 -999 -999 -999 -999
2009-02-06 10:54 51°17.218 2°25.267 -999 -999 -999 -999 -999
2009-02-06 10:55 51°17.241 2°25.28 -999 -999 -999 -999 -999
2009-02-06 10:56 51°17.259 2°25.277 -999 -999 -999 -999 -999
2009-02-06 10:57 51°17.273 2°25.276 -999 -999 -999 -999 -999
2009-02-06 10:58 51°17.29 2°25.282 -999 -999 -999 -999 -999
2009-02-06 10:59 51°17.307 2°25.289 -999 -999 -999 -999 -999
2009-02-06 11:00 51°17.31 2°25.281 -999 -999 -999 -999 -999
2009-02-06 11:01 51°17.292 2°25.259 -999 -999 -999 -999 -999
2009-02-06 11:02 51°17.265 2°25.228 -999 -999 -999 -999 -999
2009-02-06 11:03 51°17.237 2°25.201 -999 -999 -999 -999 -999
2009-02-06 11:04 51°17.214 2°25.176 -999 -999 -999 -999 -999
2009-02-06 11:05 51°17.191 2°25.153 -999 -999 -999 -999 -999
2009-02-06 11:06 51°17.169 2°25.136 -999 -999 -999 -999 -999
2009-02-06 11:07 51°17.154 2°25.102 -999 -999 -999 -999 -999
2009-02-06 11:08 51°17.14 2°25.064 -999 -999 -999 -999 -999
2009-02-06 11:09 51°17.135 2°25.05 -999 -999 -999 -999 -999
2009-02-06 11:10 51°17.139 2°25.046 -999 -999 -999 -999 -999
2009-02-06 11:11 51°17.148 2°25.047 -999 -999 -999 -999 -999
2009-02-06 11:12 51°17.161 2°25.052 -999 -999 -999 -999 -999
2009-02-06 11:13 51°17.176 2°25.059 -999 -999 -999 -999 -999
2009-02-06 11:14 51°17.194 2°25.068 -999 -999 -999 -999 -999
2009-02-06 11:15 51°17.213 2°25.077 -999 -999 -999 -999 -999
2009-02-06 11:16 51°17.234 2°25.088 -999 -999 -999 -999 -999
2009-02-06 11:17 51°17.254 2°25.1 -999 -999 -999 -999 -999
2009-02-06 11:18 51°17.275 2°25.112 -999 -999 -999 -999 -999
2009-02-06 11:19 51°17.297 2°25.124 -999 -999 -999 -999 -999
2009-02-06 11:20 51°17.319 2°25.136 -999 -999 -999 -999 -999
2009-02-06 11:21 51°17.341 2°25.149 -999 -999 -999 -999 -999
2009-02-06 11:22 51°17.363 2°25.163 -999 -999 -999 -999 -999
2009-02-06 11:23 51°17.385 2°25.176 -999 -999 -999 -999 -999
2009-02-06 11:24 51°17.407 2°25.19 -999 -999 -999 -999 -999
2009-02-06 11:25 51°17.429 2°25.203 -999 -999 -999 -999 -999
2009-02-06 11:26 51°17.451 2°25.218 -999 -999 -999 -999 -999
2009-02-06 11:27 51°17.472 2°25.232 -999 -999 -999 -999 -999
2009-02-06 11:28 51°17.494 2°25.246 -999 -999 -999 -999 -999
2009-02-06 11:29 51°17.515 2°25.259 -999 -999 -999 -999 -999
2009-02-06 11:30 51°17.536 2°25.268 -999 -999 -999 -999 -999
2009-02-06 11:31 51°17.528 2°25.249 -999 -999 -999 -999 -999
2009-02-06 11:32 51°17.464 2°25.237 -999 -999 -999 -999 -999
2009-02-06 11:33 51°17.381 2°25.218 -999 -999 -999 -999 -999
2009-02-06 11:34 51°17.32 2°25.223 -999 -999 -999 -999 -999
2009-02-06 11:35 51°17.281 2°25.228 -999 -999 -999 -999 -999
2009-02-06 11:36 51°17.268 2°25.208 -999 -999 -999 -999 -999
2009-02-06 11:37 51°17.27 2°25.19 -999 -999 -999 -999 -999
2009-02-06 11:38 51°17.275 2°25.177 -999 -999 -999 -999 -999
2009-02-06 11:39 51°17.294 2°25.126 -999 -999 -999 -999 -999
2009-02-06 11:40 51°17.375 2°25.088 -999 -999 -999 -999 -999
2009-02-06 11:41 51°17.522 2°25.118 -999 -999 -999 -999 -999
2009-02-06 11:42 51°17.7 2°25.142 -999 -999 -999 -999 -999
2009-02-06 11:43 51°17.902 2°25.164 -999 -999 -999 -999 -999
2009-02-06 11:44 51°18.12 2°25.196 -999 -999 -999 -999 -999
2009-02-06 11:45 51°18.336 2°25.214 -999 -999 -999 -999 -999
2009-02-06 11:46 51°18.552 2°25.227 -999 -999 -999 -999 -999
2009-02-06 11:47 51°18.768 2°25.249 -999 -999 -999 -999 -999
2009-02-06 11:48 51°18.983 2°25.269 -999 -999 -999 -999 -999
2009-02-06 11:49 51°19.197 2°25.285 -999 -999 -999 -999 -999
2009-02-06 11:50 51°19.413 2°25.303 -999 -999 -999 -999 -999
2009-02-06 11:51 51°19.627 2°25.315 -999 -999 -999 -999 -999
2009-02-06 11:52 51°19.842 2°25.344 -999 -999 -999 -999 -999
2009-02-06 11:53 51°20.055 2°25.406 -999 -999 -999 -999 -999
2009-02-06 11:54 51°20.268 2°25.47 -999 -999 -999 -999 -999
2009-02-06 11:55 51°20.481 2°25.536 -999 -999 -999 -999 -999
2009-02-06 11:56 51°20.695 2°25.59 -999 -999 -999 -999 -999
2009-02-06 11:57 51°20.91 2°25.605 -999 -999 -999 -999 -999
2009-02-06 11:58 51°21.125 2°25.593 -999 -999 -999 -999 -999
2009-02-06 11:59 51°21.342 2°25.594 -999 -999 -999 -999 -999
2009-02-06 12:00 51°21.556 2°25.581 -999 -999 -999 -999 -999
2009-02-06 12:01 51°21.772 2°25.575 -999 -999 -999 -999 -999
2009-02-06 12:02 51°21.988 2°25.577 -999 -999 -999 -999 -999
2009-02-06 12:03 51°22.203 2°25.574 -999 -999 -999 -999 -999
2009-02-06 12:04 51°22.419 2°25.566 -999 -999 -999 -999 -999
2009-02-06 12:05 51°22.636 2°25.56 -999 -999 -999 -999 -999
2009-02-06 12:06 51°22.853 2°25.563 -999 -999 -999 -999 -999
2009-02-06 12:07 51°23.072 2°25.569 -999 -999 -999 -999 -999
2009-02-06 12:08 51°23.291 2°25.574 -999 -999 -999 -999 -999
2009-02-06 12:09 51°23.492 2°25.713 -999 -999 -999 -999 -999
2009-02-06 12:10 51°23.688 2°25.878 -999 -999 -999 -999 -999
2009-02-06 12:11 51°23.889 2°26.03 -999 -999 -999 -999 -999
2009-02-06 12:12 51°24.09 2°26.182 -999 -999 -999 -999 -999
2009-02-06 12:13 51°24.294 2°26.326 -999 -999 -999 -999 -999
2009-02-06 12:14 51°24.5 2°26.462 -999 -999 -999 -999 -999
2009-02-06 12:15 51°24.704 2°26.598 -999 -999 -999 -999 -999
2009-02-06 12:16 51°24.909 2°26.732 -999 -999 -999 -999 -999
2009-02-06 12:17 51°25.112 2°26.87 -999 -999 -999 -999 -999
2009-02-06 12:18 51°25.311 2°27.011 -999 -999 -999 -999 -999
2009-02-06 12:19 51°25.506 2°27.143 -999 -999 -999 -999 -999
2009-02-06 12:20 51°25.709 2°27.198 -999 -999 -999 -999 -999
2009-02-06 12:21 51°25.915 2°27.114 -999 -999 -999 -999 -999
2009-02-06 12:22 51°26.1 2°26.958 -999 -999 -999 -999 -999
2009-02-06 12:23 51°26.24 2°26.722 -999 -999 -999 -999 -999
2009-02-06 12:24 51°26.333 2°26.435 -999 -999 -999 -999 -999
2009-02-06 12:25 51°26.437 2°26.155 -999 -999 -999 -999 -999
2009-02-06 12:26 51°26.557 2°25.887 -999 -999 -999 -999 -999
2009-02-06 12:27 51°26.669 2°25.611 -999 -999 -999 -999 -999
2009-02-06 12:28 51°26.767 2°25.325 -999 -999 -999 -999 -999
2009-02-06 12:29 51°26.873 2°25.044 -999 -999 -999 -999 -999
2009-02-06 12:30 51°26.978 2°24.764 -999 -999 -999 -999 -999
2009-02-06 12:31 51°27.083 2°24.485 -999 -999 -999 -999 -999
2009-02-06 12:32 51°27.186 2°24.202 -999 -999 -999 -999 -999
2009-02-06 12:33 51°27.281 2°23.916 -999 -999 -999 -999 -999
2009-02-06 12:34 51°27.379 2°23.631 -999 -999 -999 -999 -999
2009-02-06 12:35 51°27.48 2°23.349 -999 -999 -999 -999 -999
2009-02-06 12:36 51°27.582 2°23.068 -999 -999 -999 -999 -999
2009-02-06 12:37 51°27.684 2°22.785 -999 -999 -999 -999 -999
2009-02-06 12:38 51°27.788 2°22.505 -999 -999 -999 -999 -999
2009-02-06 12:39 51°27.896 2°22.224 -999 -999 -999 -999 -999
2009-02-06 12:40 51°27.999 2°21.94 -999 -999 -999 -999 -999
2009-02-06 12:41 51°28.103 2°21.656 -999 -999 -999 -999 -999
2009-02-06 12:42 51°28.204 2°21.37 -999 -999 -999 -999 -999
2009-02-06 12:43 51°28.292 2°21.076 -999 -999 -999 -999 -999
2009-02-06 12:44 51°28.381 2°20.782 -999 -999 -999 -999 -999
2009-02-06 12:45 51°28.472 2°20.489 -999 -999 -999 -999 -999
2009-02-06 12:46 51°28.559 2°20.195 -999 -999 -999 -999 -999
2009-02-06 12:47 51°28.649 2°19.903 -999 -999 -999 -999 -999
2009-02-06 12:48 51°28.736 2°19.609 -999 -999 -999 -999 -999
2009-02-06 12:49 51°28.819 2°19.353 -999 -999 -999 -999 -999
2009-02-06 12:50 51°28.881 2°19.169 -999 -999 -999 -999 -999
2009-02-06 12:51 51°28.941 2°18.99 -999 -999 -999 -999 -999
2009-02-06 12:52 51°28.997 2°18.806 -999 -999 -999 -999 -999
2009-02-06 12:53 51°29.039 2°18.618 -999 -999 -999 -999 -999
2009-02-06 12:54 51°29.073 2°18.472 -999 -999 -999 -999 -999
2009-02-06 12:55 51°29.103 2°18.367 -999 -999 -999 -999 -999
2009-02-06 12:56 51°29.125 2°18.298 -999 -999 -999 -999 -999
2009-02-06 12:57 51°29.14 2°18.259 -999 -999 -999 -999 -999
2009-02-06 12:58 51°29.156 2°18.254 -999 -999 -999 -999 -999
2009-02-06 12:59 51°29.171 2°18.289 -999 -999 -999 -999 -999
2009-02-06 13:00 51°29.182 2°18.321 -999 -999 -999 -999 -999
2009-02-06 13:01 51°29.198 2°18.334 -999 -999 -999 -999 -999
2009-02-06 13:02 51°29.213 2°18.267 -999 -999 -999 -999 -999
2009-02-06 13:03 51°29.184 2°18.231 -999 -999 -999 -999 -999
2009-02-06 13:04 51°29.158 2°18.244 -999 -999 -999 -999 -999
2009-02-06 13:05 51°29.138 2°18.263 -999 -999 -999 -999 -999
2009-02-06 13:06 51°29.137 2°18.276 -999 -999 -999 -999 -999
2009-02-06 13:07 51°29.127 2°18.307 -999 -999 -999 -999 -999
2009-02-06 13:08 51°29.128 2°18.332 -999 -999 -999 -999 -999
2009-02-06 13:09 51°29.136 2°18.354 -999 -999 -999 -999 -999
2009-02-06 13:10 51°29.147 2°18.372 -999 -999 -999 -999 -999
2009-02-06 13:11 51°29.161 2°18.385 -999 -999 -999 -999 -999
2009-02-06 13:12 51°29.175 2°18.396 -999 -999 -999 -999 -999
2009-02-06 13:13 51°29.191 2°18.405 -999 -999 -999 -999 -999
2009-02-06 13:14 51°29.203 2°18.428 -999 -999 -999 -999 -999
2009-02-06 13:15 51°29.157 2°18.446 -999 -999 -999 -999 -999
2009-02-06 13:16 51°29.143 2°18.382 -999 -999 -999 -999 -999
2009-02-06 13:17 51°29.144 2°18.336 -999 -999 -999 -999 -999
2009-02-06 13:18 51°29.146 2°18.305 -999 -999 -999 -999 -999
2009-02-06 13:19 51°29.137 2°18.277 -999 -999 -999 -999 -999
2009-02-06 13:20 51°29.133 2°18.263 -999 -999 -999 -999 -999
2009-02-06 13:21 51°29.135 2°18.252 -999 -999 -999 -999 -999
2009-02-06 13:22 51°29.134 2°18.241 -999 -999 -999 -999 -999
2009-02-06 13:23 51°29.116 2°18.246 -999 -999 -999 -999 -999
2009-02-06 13:24 51°29.108 2°18.281 -999 -999 -999 -999 -999
2009-02-06 13:25 51°29.111 2°18.31 -999 -999 -999 -999 -999
2009-02-06 13:26 51°29.12 2°18.328 -999 -999 -999 -999 -999
2009-02-06 13:27 51°29.134 2°18.33 -999 -999 -999 -999 -999
2009-02-06 13:28 51°29.151 2°18.333 -999 -999 -999 -999 -999
2009-02-06 13:29 51°29.167 2°18.369 -999 -999 -999 -999 -999
2009-02-06 13:30 51°29.174 2°18.447 -999 -999 -999 -999 -999
2009-02-06 13:31 51°29.147 2°18.497 -999 -999 -999 -999 -999
2009-02-06 13:32 51°29.115 2°18.477 -999 -999 -999 -999 -999
2009-02-06 13:33 51°29.11 2°18.425 -999 -999 -999 -999 -999
2009-02-06 13:34 51°29.11 2°18.383 -999 -999 -999 -999 -999
2009-02-06 13:35 51°29.113 2°18.354 -999 -999 -999 -999 -999
2009-02-06 13:36 51°29.119 2°18.331 -999 -999 -999 -999 -999
2009-02-06 13:37 51°29.127 2°18.312 -999 -999 -999 -999 -999
2009-02-06 13:38 51°29.138 2°18.297 -999 -999 -999 -999 -999
2009-02-06 13:39 51°29.148 2°18.284 -999 -999 -999 -999 -999
2009-02-06 13:40 51°29.158 2°18.271 -999 -999 -999 -999 -999
2009-02-06 13:41 51°29.162 2°18.246 -999 -999 -999 -999 -999
2009-02-06 13:42 51°29.159 2°18.217 -999 -999 -999 -999 -999
2009-02-06 13:43 51°29.149 2°18.195 -999 -999 -999 -999 -999
2009-02-06 13:44 51°29.138 2°18.181 -999 -999 -999 -999 -999
2009-02-06 13:45 51°29.121 2°18.173 -999 -999 -999 -999 -999
2009-02-06 13:46 51°29.1 2°18.166 -999 -999 -999 -999 -999
2009-02-06 13:47 51°29.076 2°18.162 -999 -999 -999 -999 -999
2009-02-06 13:48 51°29.06 2°18.178 -999 -999 -999 -999 -999
2009-02-06 13:49 51°29.058 2°18.203 -999 -999 -999 -999 -999
2009-02-06 13:50 51°29.065 2°18.222 -999 -999 -999 -999 -999
2009-02-06 13:51 51°29.074 2°18.237 -999 -999 -999 -999 -999
2009-02-06 13:52 51°29.082 2°18.251 -999 -999 -999 -999 -999
2009-02-06 13:53 51°29.084 2°18.271 -999 -999 -999 -999 -999
2009-02-06 13:54 51°29.078 2°18.288 -999 -999 -999 -999 -999
2009-02-06 13:55 51°29.054 2°18.303 -999 -999 -999 -999 -999
2009-02-06 13:56 51°29.036 2°18.343 -999 -999 -999 -999 -999
2009-02-06 13:57 51°29.05 2°18.391 -999 -999 -999 -999 -999
2009-02-06 13:58 51°29.069 2°18.419 -999 -999 -999 -999 -999
2009-02-06 13:59 51°29.084 2°18.439 -999 -999 -999 -999 -999
2009-02-06 14:00 51°29.096 2°18.452 -999 -999 -999 -999 -999
2009-02-06 14:01 51°29.107 2°18.46 -999 -999 -999 -999 -999
2009-02-06 14:02 51°29.117 2°18.465 -999 -999 -999 -999 -999
2009-02-06 14:03 51°29.128 2°18.468 -999 -999 -999 -999 -999
2009-02-06 14:04 51°29.138 2°18.468 -999 -999 -999 -999 -999
2009-02-06 14:05 51°29.149 2°18.467 -999 -999 -999 -999 -999
2009-02-06 14:06 51°29.16 2°18.462 -999 -999 -999 -999 -999
2009-02-06 14:07 51°29.172 2°18.457 -999 -999 -999 -999 -999
2009-02-06 14:08 51°29.183 2°18.45 -999 -999 -999 -999 -999
2009-02-06 14:09 51°29.193 2°18.442 -999 -999 -999 -999 -999
2009-02-06 14:10 51°29.202 2°18.432 -999 -999 -999 -999 -999
2009-02-06 14:11 51°29.211 2°18.423 -999 -999 -999 -999 -999
2009-02-06 14:12 51°29.221 2°18.414 -999 -999 -999 -999 -999
2009-02-06 14:13 51°29.229 2°18.405 -999 -999 -999 -999 -999
2009-02-06 14:14 51°29.238 2°18.395 -999 -999 -999 -999 -999
2009-02-06 14:15 51°29.247 2°18.384 -999 -999 -999 -999 -999
2009-02-06 14:16 51°29.255 2°18.374 -999 -999 -999 -999 -999
2009-02-06 14:17 51°29.263 2°18.363 -999 -999 -999 -999 -999
2009-02-06 14:18 51°29.27 2°18.351 -999 -999 -999 -999 -999
2009-02-06 14:19 51°29.278 2°18.34 -999 -999 -999 -999 -999
2009-02-06 14:20 51°29.286 2°18.328 -999 -999 -999 -999 -999
2009-02-06 14:21 51°29.293 2°18.315 -999 -999 -999 -999 -999
2009-02-06 14:22 51°29.3 2°18.302 -999 -999 -999 -999 -999
2009-02-06 14:23 51°29.307 2°18.289 -999 -999 -999 -999 -999
2009-02-06 14:24 51°29.313 2°18.276 -999 -999 -999 -999 -999
2009-02-06 14:25 51°29.32 2°18.265 -999 -999 -999 -999 -999
2009-02-06 14:26 51°29.33 2°18.265 -999 -999 -999 -999 -999
2009-02-06 14:27 51°29.338 2°18.277 -999 -999 -999 -999 -999
2009-02-06 14:28 51°29.342 2°18.29 -999 -999 -999 -999 -999
2009-02-06 14:29 51°29.346 2°18.297 -999 -999 -999 -999 -999
2009-02-06 14:30 51°29.351 2°18.295 -999 -999 -999 -999 -999
2009-02-06 14:31 51°29.36 2°18.264 -999 -999 -999 -999 -999
2009-02-06 14:32 51°29.366 2°18.232 -999 -999 -999 -999 -999
2009-02-06 14:33 51°29.369 2°18.242 -999 -999 -999 -999 -999
2009-02-06 14:34 51°29.362 2°18.269 -999 -999 -999 -999 -999
2009-02-06 14:35 51°29.374 2°18.252 -999 -999 -999 -999 -999
2009-02-06 14:36 51°29.345 2°18.263 -999 -999 -999 -999 -999
2009-02-06 14:37 51°29.319 2°18.252 -999 -999 -999 -999 -999
2009-02-06 14:38 51°29.298 2°18.244 -999 -999 -999 -999 -999
2009-02-06 14:39 51°29.282 2°18.238 -999 -999 -999 -999 -999
2009-02-06 14:40 51°29.269 2°18.233 -999 -999 -999 -999 -999
2009-02-06 14:41 51°29.257 2°18.232 -999 -999 -999 -999 -999
2009-02-06 14:42 51°29.226 2°18.248 -999 -999 -999 -999 -999
2009-02-06 14:43 51°29.2 2°18.244 -999 -999 -999 -999 -999
2009-02-06 14:44 51°29.176 2°18.243 -999 -999 -999 -999 -999
2009-02-06 14:45 51°29.157 2°18.258 -999 -999 -999 -999 -999
2009-02-06 14:46 51°29.145 2°18.273 -999 -999 -999 -999 -999
2009-02-06 14:47 51°29.132 2°18.282 -999 -999 -999 -999 -999
2009-02-06 14:48 51°29.122 2°18.287 -999 -999 -999 -999 -999
2009-02-06 14:49 51°29.114 2°18.292 -999 -999 -999 -999 -999
2009-02-06 14:50 51°29.109 2°18.297 -999 -999 -999 -999 -999
2009-02-06 14:51 51°29.107 2°18.3 -999 -999 -999 -999 -999
2009-02-06 14:52 51°29.105 2°18.299 -999 -999 -999 -999 -999
2009-02-06 14:53 51°29.103 2°18.295 -999 -999 -999 -999 -999
2009-02-06 14:54 51°29.103 2°18.289 -999 -999 -999 -999 -999
2009-02-06 14:55 51°29.103 2°18.282 -999 -999 -999 -999 -999
2009-02-06 14:56 51°29.102 2°18.281 -999 -999 -999 -999 -999
2009-02-06 14:57 51°29.11 2°18.312 -999 -999 -999 -999 -999
2009-02-06 14:58 51°29.131 2°18.327 -999 -999 -999 -999 -999
2009-02-06 14:59 51°29.147 2°18.33 -999 -999 -999 -999 -999
2009-02-06 15:00 51°29.16 2°18.33 -999 -999 -999 -999 -999
2009-02-06 15:01 51°29.169 2°18.328 -999 -999 -999 -999 -999
2009-02-06 15:02 51°29.173 2°18.324 -999 -999 -999 -999 -999
2009-02-06 15:03 51°29.176 2°18.316 -999 -999 -999 -999 -999
2009-02-06 15:04 51°29.176 2°18.308 -999 -999 -999 -999 -999
2009-02-06 15:05 51°29.176 2°18.299 -999 -999 -999 -999 -999
2009-02-06 15:06 51°29.176 2°18.292 -999 -999 -999 -999 -999
2009-02-06 15:07 51°29.174 2°18.349 -999 -999 -999 -999 -999
2009-02-06 15:08 51°29.109 2°18.467 -999 -999 -999 -999 -999
2009-02-06 15:09 51°29.007 2°18.676 -999 -999 -999 -999 -999
2009-02-06 15:10 51°28.903 2°18.941 -999 -999 -999 -999 -999
2009-02-06 15:11 51°28.793 2°19.204 -999 -999 -999 -999 -999
2009-02-06 15:12 51°28.645 2°19.416 -999 -999 -999 -999 -999
2009-02-06 15:13 51°28.48 2°19.6 -999 -999 -999 -999 -999
2009-02-06 15:14 51°28.313 2°19.781 -999 -999 -999 -999 -999
2009-02-06 15:15 51°28.15 2°19.967 -999 -999 -999 -999 -999
2009-02-06 15:16 51°28.013 2°20.193 -999 -999 -999 -999 -999
2009-02-06 15:17 51°27.88 2°20.427 -999 -999 -999 -999 -999
2009-02-06 15:18 51°27.75 2°20.664 -999 -999 -999 -999 -999
2009-02-06 15:19 51°27.614 2°20.897 -999 -999 -999 -999 -999
2009-02-06 15:20 51°27.475 2°21.126 -999 -999 -999 -999 -999
2009-02-06 15:21 51°27.34 2°21.36 -999 -999 -999 -999 -999
2009-02-06 15:22 51°27.201 2°21.59 -999 -999 -999 -999 -999
2009-02-06 15:23 51°27.065 2°21.823 -999 -999 -999 -999 -999
2009-02-06 15:24 51°26.928 2°22.055 -999 -999 -999 -999 -999
2009-02-06 15:25 51°26.787 2°22.28 -999 -999 -999 -999 -999
2009-02-06 15:26 51°26.646 2°22.503 -999 -999 -999 -999 -999
2009-02-06 15:27 51°26.51 2°22.728 -999 -999 -999 -999 -999
2009-02-06 15:28 51°26.377 2°22.957 -999 -999 -999 -999 -999
2009-02-06 15:29 51°26.238 2°23.182 -999 -999 -999 -999 -999
2009-02-06 15:30 51°26.09 2°23.399 -999 -999 -999 -999 -999
2009-02-06 15:31 51°25.942 2°23.616 -999 -999 -999 -999 -999
2009-02-06 15:32 51°25.791 2°23.83 -999 -999 -999 -999 -999
2009-02-06 15:33 51°25.641 2°24.043 -999 -999 -999 -999 -999
2009-02-06 15:34 51°25.494 2°24.261 -999 -999 -999 -999 -999
2009-02-06 15:35 51°25.352 2°24.483 -999 -999 -999 -999 -999
2009-02-06 15:36 51°25.203 2°24.698 -999 -999 -999 -999 -999
2009-02-06 15:37 51°25.058 2°24.917 -999 -999 -999 -999 -999
2009-02-06 15:38 51°24.923 2°25.15 -999 -999 -999 -999 -999
2009-02-06 15:39 51°24.788 2°25.385 -999 -999 -999 -999 -999
2009-02-06 15:40 51°24.658 2°25.624 -999 -999 -999 -999 -999
2009-02-06 15:41 51°24.523 2°25.858 -999 -999 -999 -999 -999
2009-02-06 15:42 51°24.391 2°26.094 -999 -999 -999 -999 -999
2009-02-06 15:43 51°24.257 2°26.328 -999 -999 -999 -999 -999
2009-02-06 15:44 51°24.119 2°26.556 -999 -999 -999 -999 -999
2009-02-06 15:45 51°23.984 2°26.787 -999 -999 -999 -999 -999
2009-02-06 15:46 51°23.857 2°27.015 -999 -999 -999 -999 -999
2009-02-06 15:47 51°23.724 2°27.24 -999 -999 -999 -999 -999
2009-02-06 15:48 51°23.593 2°27.465 -999 -999 -999 -999 -999
2009-02-06 15:49 51°23.458 2°27.695 -999 -999 -999 -999 -999
2009-02-06 15:50 51°23.331 2°27.937 -999 -999 -999 -999 -999
2009-02-06 15:51 51°23.198 2°28.172 -999 -999 -999 -999 -999
2009-02-06 15:52 51°23.064 2°28.405 -999 -999 -999 -999 -999
2009-02-06 15:53 51°22.938 2°28.646 -999 -999 -999 -999 -999
2009-02-06 15:54 51°22.807 2°28.881 -999 -999 -999 -999 -999
2009-02-06 15:55 51°22.676 2°29.115 -999 -999 -999 -999 -999
2009-02-06 15:56 51°22.549 2°29.352 -999 -999 -999 -999 -999
2009-02-06 15:57 51°22.418 2°29.582 -999 -999 -999 -999 -999
2009-02-06 15:58 51°22.287 2°29.81 -999 -999 -999 -999 -999
2009-02-06 15:59 51°22.153 2°30.032 -999 -999 -999 -999 -999
2009-02-06 16:00 51°22.021 2°30.254 -999 -999 -999 -999 -999
2009-02-06 16:01 51°21.897 2°30.489 -999 -999 -999 -999 -999
2009-02-06 16:02 51°21.773 2°30.713 -999 -999 -999 -999 -999
2009-02-06 16:03 51°21.638 2°30.939 -999 -999 -999 -999 -999
2009-02-06 16:04 51°21.51 2°31.158 -999 -999 -999 -999 -999
2009-02-06 16:05 51°21.388 2°31.398 -999 -999 -999 -999 -999
2009-02-06 16:06 51°21.299 2°31.652 -999 -999 -999 -999 -999
2009-02-06 16:07 51°21.21 2°31.914 -999 -999 -999 -999 -999
2009-02-06 16:08 51°21.099 2°32.162 -999 -999 -999 -999 -999
2009-02-06 16:09 51°20.944 2°32.361 -999 -999 -999 -999 -999
2009-02-06 16:10 51°20.786 2°32.559 -999 -999 -999 -999 -999
2009-02-06 16:11 51°20.648 2°32.785 -999 -999 -999 -999 -999
2009-02-06 16:12 51°20.533 2°33.038 -999 -999 -999 -999 -999
2009-02-06 16:13 51°20.417 2°33.289 -999 -999 -999 -999 -999
2009-02-06 16:14 51°20.3 2°33.54 -999 -999 -999 -999 -999
2009-02-06 16:15 51°20.187 2°33.794 -999 -999 -999 -999 -999
2009-02-06 16:16 51°20.074 2°34.047 -999 -999 -999 -999 -999
2009-02-06 16:17 51°19.964 2°34.3 -999 -999 -999 -999 -999
2009-02-06 16:18 51°19.852 2°34.549 -999 -999 -999 -999 -999
2009-02-06 16:19 51°19.741 2°34.803 -999 -999 -999 -999 -999
2009-02-06 16:20 51°19.638 2°35.048 -999 -999 -999 -999 -999
2009-02-06 16:21 51°19.52 2°35.297 -999 -999 -999 -999 -999
2009-02-06 16:22 51°19.412 2°35.545 -999 -999 -999 -999 -999
2009-02-06 16:23 51°19.302 2°35.798 -999 -999 -999 -999 -999
2009-02-06 16:24 51°19.186 2°36.051 -999 -999 -999 -999 -999
2009-02-06 16:25 51°19.084 2°36.305 -999 -999 -999 -999 -999
2009-02-06 16:26 51°18.985 2°36.572 -999 -999 -999 -999 -999
2009-02-06 16:27 51°18.887 2°36.828 -999 -999 -999 -999 -999
2009-02-06 16:28 51°18.789 2°37.087 -999 -999 -999 -999 -999
2009-02-06 16:29 51°18.689 2°37.348 -999 -999 -999 -999 -999
2009-02-06 16:30 51°18.595 2°37.622 -999 -999 -999 -999 -999
2009-02-06 16:31 51°18.498 2°37.895 -999 -999 -999 -999 -999
2009-02-06 16:32 51°18.393 2°38.164 -999 -999 -999 -999 -999
2009-02-06 16:33 51°18.306 2°38.447 -999 -999 -999 -999 -999
2009-02-06 16:34 51°18.218 2°38.73 -999 -999 -999 -999 -999
2009-02-06 16:35 51°18.134 2°39.021 -999 -999 -999 -999 -999
2009-02-06 16:36 51°18.048 2°39.299 -999 -999 -999 -999 -999
2009-02-06 16:37 51°17.963 2°39.586 -999 -999 -999 -999 -999
2009-02-06 16:38 51°17.886 2°39.861 -999 -999 -999 -999 -999
2009-02-06 16:39 51°17.808 2°40.143 -999 -999 -999 -999 -999
2009-02-06 16:40 51°17.723 2°40.412 -999 -999 -999 -999 -999
2009-02-06 16:41 51°17.644 2°40.689 -999 -999 -999 -999 -999
2009-02-06 16:42 51°17.563 2°40.972 -999 -999 -999 -999 -999
2009-02-06 16:43 51°17.481 2°41.246 -999 -999 -999 -999 -999
2009-02-06 16:44 51°17.391 2°41.527 -999 -999 -999 -999 -999
2009-02-06 16:45 51°17.312 2°41.803 -999 -999 -999 -999 -999
2009-02-06 16:46 51°17.233 2°42.087 -999 -999 -999 -999 -999
2009-02-06 16:47 51°17.155 2°42.374 -999 -999 -999 -999 -999
2009-02-06 16:48 51°17.084 2°42.654 -999 -999 -999 -999 -999
2009-02-06 16:49 51°17.01 2°42.931 -999 -999 -999 -999 -999
2009-02-06 16:50 51°16.932 2°43.211 -999 -999 -999 -999 -999
2009-02-06 16:51 51°16.849 2°43.497 -999 -999 -999 -999 -999
2009-02-06 16:52 51°16.77 2°43.777 -999 -999 -999 -999 -999
2009-02-06 16:53 51°16.698 2°44.073 -999 -999 -999 -999 -999
2009-02-06 16:54 51°16.635 2°44.363 -999 -999 -999 -999 -999
2009-02-06 16:55 51°16.567 2°44.662 -999 -999 -999 -999 -999
2009-02-06 16:56 51°16.496 2°44.951 -999 -999 -999 -999 -999
2009-02-06 16:57 51°16.429 2°45.251 -999 -999 -999 -999 -999
2009-02-06 16:58 51°16.365 2°45.553 -999 -999 -999 -999 -999
2009-02-06 16:59 51°16.308 2°45.857 -999 -999 -999 -999 -999
2009-02-06 17:00 51°16.259 2°46.168 -999 -999 -999 -999 -999
2009-02-06 17:01 51°16.206 2°46.467 -999 -999 -999 -999 -999
2009-02-06 17:02 51°16.15 2°46.771 -999 -999 -999 -999 -999
2009-02-06 17:03 51°16.091 2°47.073 -999 -999 -999 -999 -999
2009-02-06 17:04 51°16.029 2°47.375 -999 -999 -999 -999 -999
2009-02-06 17:05 51°15.98 2°47.68 -999 -999 -999 -999 -999
2009-02-06 17:06 51°15.934 2°47.983 -999 -999 -999 -999 -999
2009-02-06 17:07 51°15.887 2°48.282 -999 -999 -999 -999 -999
2009-02-06 17:08 51°15.841 2°48.582 -999 -999 -999 -999 -999
2009-02-06 17:09 51°15.799 2°48.888 -999 -999 -999 -999 -999
2009-02-06 17:10 51°15.764 2°49.188 -999 -999 -999 -999 -999
2009-02-06 17:11 51°15.726 2°49.499 -999 -999 -999 -999 -999
2009-02-06 17:12 51°15.682 2°49.8 -999 -999 -999 -999 -999
2009-02-06 17:13 51°15.633 2°50.111 -999 -999 -999 -999 -999
2009-02-06 17:14 51°15.579 2°50.408 -999 -999 -999 -999 -999
2009-02-06 17:15 51°15.513 2°50.707 -999 -999 -999 -999 -999
2009-02-06 17:16 51°15.447 2°50.997 -999 -999 -999 -999 -999
2009-02-06 17:17 51°15.387 2°51.279 -999 -999 -999 -999 -999
2009-02-06 17:18 51°15.329 2°51.57 -999 -999 -999 -999 -999
2009-02-06 17:19 51°15.269 2°51.851 -999 -999 -999 -999 -999
2009-02-06 17:20 51°15.199 2°52.139 -999 -999 -999 -999 -999
2009-02-06 17:21 51°15.132 2°52.42 -999 -999 -999 -999 -999
2009-02-06 17:22 51°15.044 2°52.695 -999 -999 -999 -999 -999
2009-02-06 17:23 51°14.956 2°52.975 -999 -999 -999 -999 -999
2009-02-06 17:24 51°14.885 2°53.258 -999 -999 -999 -999 -999
2009-02-06 17:25 51°14.837 2°53.559 -999 -999 -999 -999 -999
2009-02-06 17:26 51°14.798 2°53.855 -999 -999 -999 -999 -999
2009-02-06 17:27 51°14.746 2°54.144 -999 -999 -999 -999 -999
2009-02-06 17:28 51°14.66 2°54.406 -999 -999 -999 -999 -999
2009-02-06 17:29 51°14.548 2°54.657 -999 -999 -999 -999 -999
2009-02-06 17:30 51°14.433 2°54.892 -999 -999 -999 -999 -999
2009-02-06 17:31 51°14.32 2°55.146 -999 -999 -999 -999 -999
2009-02-06 17:32 51°14.185 2°55.353 -999 -999 -999 -999 -999
2009-02-06 17:33 51°14.042 2°55.471 -999 -999 -999 -999 -999
2009-02-06 17:34 51°13.91 2°55.567 -999 -999 -999 -999 -999
2009-02-06 17:35 51°13.805 2°55.648 -999 -999 -999 -999 -999
2009-02-06 17:36 51°13.723 2°55.769 -999 -999 -999 -999 -999
2009-02-06 17:37 51°13.674 2°55.884 -999 -999 -999 -999 -999
2009-02-06 17:38 51°13.66 2°55.954 -999 -999 -999 -999 -999
2009-02-06 17:39 51°13.66 2°55.959 -999 -999 -999 -999 -999